This is the latest recevied weather packets stored in our database for station/object KN6DHD. If no packets are shown the sender has not sent any weather packets the latest 10 day(s).
| Time | Temp. | Humidity | Pressure | Rain* | Wind** | Luminosity | Snow |
|---|---|---|---|---|---|---|---|
| 1777936339 | 16.67° C | 80% | 1015.5 hPa | 0 mm | - | 80 W/m² | - |
| 1777936035 | 16.67° C | 82% | 1015.5 hPa | 0 mm | - | 94 W/m² | - |
| 1777935734 | 16.67° C | 81% | 1015.5 hPa | 0 mm | - | 93 W/m² | - |
| 1777935432 | 16.67° C | 81% | 1015.4 hPa | 0 mm | - | 95 W/m² | - |
| 1777935128 | 16.67° C | 81% | 1015.7 hPa | 0 mm | - | 90 W/m² | - |
| 1777934825 | 16.67° C | 80% | 1015.8 hPa | 0 mm | - | 77 W/m² | - |
| 1777934523 | 17.22° C | 79% | 1015.7 hPa | 0 mm | - | 94 W/m² | - |
| 1777934219 | 17.22° C | 78% | 1015.8 hPa | 0 mm | - | 121 W/m² | - |
| 1777933915 | 17.22° C | 78% | 1015.8 hPa | 0 mm | - | 106 W/m² | - |
| 1777933612 | 17.22° C | 77% | 1015.6 hPa | 0 mm | - | 94 W/m² | - |
| 1777933308 | 17.22° C | 75% | 1015.7 hPa | 0 mm | - | 133 W/m² | - |
| 1777933006 | 17.22° C | 75% | 1015.6 hPa | 0 mm | - | 98 W/m² | - |
| 1777932703 | 17.22° C | 75% | 1015.8 hPa | 0 mm | - | 85 W/m² | - |
| 1777932399 | 17.22° C | 74% | 1015.5 hPa | 0 mm | - | 103 W/m² | - |
| 1777932097 | 17.22° C | 67% | 1015.6 hPa | 0 mm | - | 69 W/m² | - |
| 1777931793 | 17.22° C | 68% | 1015.7 hPa | 0 mm | - | 74 W/m² | - |
| 1777931491 | 17.22° C | 68% | 1015.9 hPa | 0 mm | - | 73 W/m² | - |
| 1777931186 | 17.22° C | 68% | 1015.9 hPa | 0 mm | - | 84 W/m² | - |
| 1777930883 | 16.67° C | 69% | 1016 hPa | 0 mm | - | 96 W/m² | - |
| 1777930579 | 17.22° C | 69% | 1015.9 hPa | 0 mm | - | 87 W/m² | - |
| 1777930276 | 17.22° C | 67% | 1015.8 hPa | 0 mm | - | 85 W/m² | - |
| 1777929972 | 17.22° C | 67% | 1015.7 hPa | 0 mm | - | 90 W/m² | - |
| 1777929670 | 17.22° C | 68% | 1015.9 hPa | 0 mm | - | 97 W/m² | - |
| 1777929367 | 17.22° C | 67% | 1016.1 hPa | 0 mm | - | 114 W/m² | - |
| 1777929063 | 17.22° C | 67% | 1015.9 hPa | 0 mm | - | 130 W/m² | - |
* Rain latest hour (hover to see other rain measurements)
** Current wind speed in m/s (hover to see current wind gust speed)